Change the Weather History Date:

Friday, March 22, 2013

  Actual Average (KVLD) Record (KVLD)
Temperature  
Mean Temperature 54 °F 61 °F  
Max Temperature 64 °F 74 °F 90 °F (2011)
Min Temperature 44 °F 48 °F 33 °F (1998)
Degree Days  
Heating Degree Days 11 5  
Month to date heating degree days 145  
Since 1 July heating degree days 1525  
Cooling Degree Days 0 1  
Month to date cooling degree days 22  
Year to date cooling degree days 32  
Growing Degree Days 4 (Base 50)    
Moisture  
Dew Point 34 °F    
Average Humidity 49    
Maximum Humidity 87    
Minimum Humidity 30    
Precipitation  
Precipitation 0.00 in 0.14 in 2.07 in (2005)
Month to date precipitation 3.51  
Year to date precipitation 12.24  
Sea Level Pressure  
Sea Level Pressure 30.00 in    
Wind  
Wind Speed 5 mph (ENE)    
Max Wind Speed 10 mph    
Max Gust Speed 16 mph    
Visibility 10 miles    
Events      
T = Trace of Precipitation, MM = Missing Value Source: NWS Daily Summary

Daily Weather History Graph

Daily Weather History Graph

Search for Another Location

Airport or City:

Trip Planner

Search our weather history database for the weather conditions in past years. The results will help you decide how hot, cold, wet, or windy it might be!

Date:

Astronomy

Mar. 22, 2013 Rise Set
Actual Time 7:36 AM EDT 7:48 PM EDT
Civil Twilight 7:12 AM EDT 8:12 PM EDT
Nautical Twilight 6:44 AM EDT 8:40 PM EDT
Astronomical Twilight 6:15 AM EDT 9:09 PM EDT
Moon 3:30 PM EDT (3/22) 4:19 AM EDT (3/22)
Length of Visible Light 13h 00m
Length of Day
12h 11m
Waxing Gibbous, 77% of the Moon is Illuminated
Mar 22
Waxing Gibbous
Mar 27
Full
Apr 3
Last Quarter
Apr 10
New
Apr 18
First Quarter

Hourly Weather History & Observations

Time (EDT) Temp. Windchill Dew Point Humidity Pressure Visibility Wind Dir Wind Speed Gust Speed Precip Events Conditions
12:15 AM 44.6 °F - 39.2 °F 81% 29.96 in 10.0 mi Calm Calm - N/A   Scattered Clouds
12:35 AM 44.6 °F - 37.4 °F 76% 29.96 in 10.0 mi Calm Calm - N/A   Mostly Cloudy
12:55 AM 44.6 °F - 41.0 °F 87% 29.98 in 10.0 mi Calm Calm - N/A   Scattered Clouds
1:15 AM 46.4 °F - 41.0 °F 81% 29.97 in 10.0 mi Calm Calm - N/A   Mostly Cloudy
1:55 AM 46.4 °F 45.2 °F 42.8 °F 87% 29.95 in 10.0 mi ENE 3.5 mph - N/A   Overcast
2:15 AM 46.4 °F - 41.0 °F 81% 29.96 in 10.0 mi Calm Calm - N/A   Scattered Clouds
2:55 AM 46.4 °F - 35.6 °F 66% 29.97 in 10.0 mi Calm Calm - N/A   Clear
3:15 AM 48.2 °F - 33.8 °F 58% 29.97 in 10.0 mi NNE 3.5 mph - N/A   Mostly Cloudy
3:35 AM 48.2 °F - 33.8 °F 58% 29.97 in 10.0 mi NE 3.5 mph - N/A   Overcast
3:55 AM 46.4 °F 44.3 °F 33.8 °F 62% 29.98 in 10.0 mi North 4.6 mph - N/A   Mostly Cloudy
4:15 AM 46.4 °F 43.5 °F 32.0 °F 57% 29.97 in 10.0 mi NE 5.8 mph - N/A   Mostly Cloudy
4:35 AM 46.4 °F 42.9 °F 32.0 °F 57% 29.99 in 10.0 mi NNE 6.9 mph - N/A   Mostly Cloudy
4:55 AM 48.2 °F - 32.0 °F 54% 29.98 in 10.0 mi NE 8.1 mph - N/A   Overcast
5:15 AM 46.4 °F 41.9 °F 32.0 °F 57% 29.99 in 10.0 mi NE 9.2 mph - N/A   Scattered Clouds
5:35 AM 46.4 °F 42.4 °F 30.2 °F 53% 29.99 in 10.0 mi NE 8.1 mph - N/A   Scattered Clouds
5:55 AM 46.4 °F 41.9 °F 28.4 °F 50% 29.99 in 10.0 mi ENE 9.2 mph - N/A   Clear
6:15 AM 46.4 °F 41.9 °F 26.6 °F 46% 30.00 in 10.0 mi ENE 9.2 mph - N/A   Scattered Clouds
6:35 AM 46.4 °F 41.9 °F 26.6 °F 46% 30.01 in 10.0 mi ENE 9.2 mph - N/A   Scattered Clouds
6:55 AM 44.6 °F 40.7 °F 24.8 °F 46% 30.02 in 10.0 mi East 6.9 mph - N/A   Clear
7:15 AM 44.6 °F 40.7 °F 24.8 °F 46% 30.01 in 10.0 mi East 6.9 mph - N/A   Clear
7:35 AM 44.6 °F 41.4 °F 24.8 °F 46% 30.01 in 10.0 mi ESE 5.8 mph - N/A   Clear
7:55 AM 44.6 °F 41.4 °F 24.8 °F 46% 30.04 in 10.0 mi ESE 5.8 mph - N/A   Clear
8:15 AM 44.6 °F 40.7 °F 26.6 °F 49% 30.04 in 10.0 mi ESE 6.9 mph - N/A   Scattered Clouds
8:35 AM 46.4 °F 43.5 °F 26.6 °F 46% 30.04 in 10.0 mi ESE 5.8 mph - N/A   Scattered Clouds
8:55 AM 46.4 °F 42.9 °F 26.6 °F 46% 30.05 in 10.0 mi East 6.9 mph - N/A   Scattered Clouds
9:15 AM 46.4 °F 42.9 °F 28.4 °F 50% 30.06 in 10.0 mi East 6.9 mph - N/A   Clear
9:35 AM 46.4 °F 42.4 °F 28.4 °F 50% 30.08 in 10.0 mi ENE 8.1 mph - N/A   Clear
9:55 AM 50.0 °F - 28.4 °F 43% 30.07 in 10.0 mi East 10.4 mph - N/A   Scattered Clouds
10:15 AM 50.0 °F - 28.4 °F 43% 30.07 in 10.0 mi ESE 9.2 mph - N/A   Overcast
10:35 AM 50.0 °F - 28.4 °F 43% 30.07 in 10.0 mi SE 9.2 mph - N/A   Overcast
10:55 AM 51.8 °F - 30.2 °F 44% 30.07 in 10.0 mi ESE 8.1 mph - N/A   Scattered Clouds
11:15 AM 51.8 °F - 30.2 °F 44% 30.07 in 10.0 mi ESE 8.1 mph - N/A   Mostly Cloudy
11:35 AM 53.6 °F - 28.4 °F 38% 30.06 in 10.0 mi ESE 9.2 mph - N/A   Scattered Clouds
11:55 AM 55.4 °F - 30.2 °F 38% 30.06 in 10.0 mi East 8.1 mph - N/A   Clear
12:15 PM 55.4 °F - 30.2 °F 38% 30.06 in 10.0 mi East 6.9 mph - N/A   Scattered Clouds
12:35 PM 57.2 °F - 32.0 °F 38% 30.06 in 10.0 mi East 9.2 mph - N/A   Scattered Clouds
12:55 PM 59.0 °F - 32.0 °F 36% 30.04 in 10.0 mi ESE 8.1 mph - N/A   Clear
1:15 PM 59.0 °F - 32.0 °F 36% 30.04 in 10.0 mi SE 8.1 mph - N/A   Clear
1:35 PM 60.8 °F - 32.0 °F 34% 30.02 in 10.0 mi SE 8.1 mph 16.1 mph N/A   Scattered Clouds
1:55 PM 62.6 °F - 32.0 °F 32% 30.01 in 10.0 mi SE 10.4 mph 16.1 mph N/A   Scattered Clouds
2:15 PM 60.8 °F - 32.0 °F 34% 30.00 in 10.0 mi ESE 8.1 mph - N/A   Mostly Cloudy
2:35 PM 62.6 °F - 32.0 °F 32% 29.99 in 10.0 mi East 6.9 mph - N/A   Overcast
2:55 PM 62.6 °F - 32.0 °F 32% 29.99 in 10.0 mi ENE 4.6 mph - N/A   Overcast
3:15 PM 64.4 °F - 32.0 °F 30% 29.99 in 10.0 mi East 10.4 mph - N/A   Overcast
3:35 PM 62.6 °F - 32.0 °F 32% 29.98 in 10.0 mi ENE 6.9 mph - N/A   Overcast
3:55 PM 62.6 °F - 32.0 °F 32% 29.97 in 10.0 mi ENE 6.9 mph - N/A   Overcast
4:15 PM 62.6 °F - 32.0 °F 32% 29.98 in 10.0 mi NNE 6.9 mph - N/A   Overcast
4:35 PM 64.4 °F - 32.0 °F 30% 29.97 in 10.0 mi ENE 8.1 mph - N/A   Overcast
4:55 PM 64.4 °F - 33.8 °F 32% 29.97 in 10.0 mi ENE 6.9 mph - N/A   Mostly Cloudy
5:15 PM 62.6 °F - 32.0 °F 32% 29.97 in 10.0 mi ENE 6.9 mph - N/A   Overcast
5:35 PM 62.6 °F - 33.8 °F 34% 29.97 in 10.0 mi NE 9.2 mph - N/A   Overcast
5:55 PM 62.6 °F - 33.8 °F 34% 29.98 in 10.0 mi ENE 10.4 mph - N/A   Overcast
6:15 PM 62.6 °F - 33.8 °F 34% 29.97 in 10.0 mi ENE 9.2 mph - N/A   Overcast
6:35 PM 62.6 °F - 33.8 °F 34% 29.96 in 10.0 mi East 10.4 mph - N/A   Overcast
6:55 PM 60.8 °F - 37.4 °F 42% 29.98 in 10.0 mi ENE 8.1 mph - N/A   Overcast
7:15 PM 60.8 °F - 37.4 °F 42% 29.98 in 10.0 mi ENE 9.2 mph - N/A   Overcast
7:35 PM 59.0 °F - 37.4 °F 45% 30.00 in 10.0 mi NE 6.9 mph - N/A   Overcast
7:55 PM 59.0 °F - 39.2 °F 48% 29.99 in 10.0 mi NE 5.8 mph - N/A   Overcast
8:15 PM 59.0 °F - 39.2 °F 48% 29.99 in 10.0 mi East 4.6 mph - N/A   Overcast
8:35 PM 59.0 °F - 39.2 °F 48% 29.98 in 10.0 mi East 5.8 mph - N/A   Overcast
8:55 PM 57.2 °F - 39.2 °F 51% 29.98 in 10.0 mi East 4.6 mph - N/A   Mostly Cloudy
9:15 PM 55.4 °F - 39.2 °F 54% 29.99 in 10.0 mi East 3.5 mph - N/A   Mostly Cloudy
9:35 PM 55.4 °F - 41.0 °F 58% 29.99 in 10.0 mi NE 4.6 mph - N/A   Mostly Cloudy
9:55 PM 53.6 °F - 41.0 °F 62% 29.99 in 10.0 mi NNE 3.5 mph - N/A   Scattered Clouds
10:15 PM 53.6 °F - 41.0 °F 62% 29.99 in 10.0 mi East 4.6 mph - N/A   Clear
10:35 PM 53.6 °F - 41.0 °F 62% 30.00 in 10.0 mi East 3.5 mph - N/A   Clear
10:55 PM 53.6 °F - 41.0 °F 62% 30.01 in 10.0 mi Calm Calm - N/A   Scattered Clouds
11:15 PM 51.8 °F - 42.8 °F 71% 30.01 in 10.0 mi ENE 4.6 mph - N/A   Mostly Cloudy
11:35 PM 53.6 °F - 42.8 °F 67% 30.01 in 10.0 mi Calm Calm - N/A   Scattered Clouds
11:55 PM 51.8 °F - 42.8 °F 71% 30.01 in 10.0 mi East 3.5 mph - N/A   Clear